Regional Weather Roundup
Issued by NWS

Home | Current Version | Previous Version | Text Only | Print | Product List | Glossary Off
Versions: 1 2 3 4 5 6 7 8 9 10 11 12 13 14 15 16 17 18 19 20 21 22 23 24 25 26 27 28 29 30 31 32 33 34 35 36 37 38 39 40 41 42 43 44 45 46 47 48 49 50

000
ASUS43 KLMK 250310
RWRKY
KENTUCKY REGIONAL WEATHER ROUNDUP
NATIONAL WEATHER SERVICE LOUISVILLE KY
1000 PM EST FRI FEB 24 2017

NOTE "FAIR" INDICATES FEW OR NO CLOUDS BELOW 12,000 FEET
WITH NO SIGNIFICANT WEATHER AND/OR OBSTRUCTIONS TO VISIBILITY.

KYZ001>023-026-027-061>063-070>075-250400-
WESTERN AND SOUTH CENTRAL KENTUCKY

CITY           SKY/WX    TMP DP  RH WIND       PRES   REMARKS
PADUCAH        CLOUDY    56  32  40 W12       29.73R
HENDERSON      CLOUDY    54  46  76 W5        29.69R
OWENSBORO      CLOUDY    54  49  83 W10       29.71R
HOPKINSVILLE   CLOUDY    64  54  69 W20G30    29.67R
BOWLING GREEN  CLOUDY    66  52  60 W12       29.66S
GLASGOW        LGT RAIN  63  53  69 W10G16    29.65F
$$

KYZ024-025-028>034-038-045-046-053-250400-
NORTH CENTRAL KENTUCKY

CITY           SKY/WX    TMP DP  RH WIND       PRES   REMARKS
LOUISVILLE/SDF LGT RAIN  63  55  75 W18       29.61R
LOUISVILLE/LOU LGT RAIN  64  54  69 W15G26    29.60R
FORT KNOX      LGT RAIN  61  54  77 W12       29.59F
$$

KYZ035>037-039>044-047>052-055>060-089>105-250400-
NORTHEAST KENTUCKY

CITY           SKY/WX    TMP DP  RH WIND       PRES   REMARKS
LEXINGTON      TSTM      62  57  83 SW9       29.62R
COVINGTON      CLOUDY    61  57  87 SW10      29.57S
FRANKFORT      CLOUDY    61  56  83 SW5       29.59F
$$

KYZ054-064>069-076>088-106>120-250400-
SOUTHEAST KENTUCKY

CITY           SKY/WX    TMP DP  RH WIND       PRES   REMARKS
JACKSON        CLEAR     69  50  50 VRB6      29.66R
LONDON         CLEAR     69  49  48 S14       29.65F
SOMERSET       CLOUDY    68  52  56 S8G18     29.65F
MIDDLESBORO    PTCLDY    70  52  52 S10G18    29.71S
MONTICELLO     PTCLDY    71  53  52 VRB7      29.65F
$$





USA.gov is the U.S. government's official web portal to all federal, state and local government web resources and services.